Home > Weather > Luhansk > Past weeks

Flag for Ukraine Past Weather in Luhansk, Ukraine — Yesterday and Last 2 Weeks

Now
84 °F

Scattered clouds.


Feels Like: 87 °F
Forecast: 69 / 87 °F
Wind: 6 mph from West

Location: Rostov-Na-Donu

Current Time: Jun 29, 2016 at 5:40:17 PM

Latest Report: Jun 29, 2016 at 5:00 PM


Visibility: N/A

Pressure: 29.71 "Hg

Humidity: 55%

Dew Point: 66 °F

Location of LuhanskLocation

Past Weather in Luhansk — Graph

°F

Luhansk Temperature Yesterday

Maximum temperature yesterday: 93 °F (at 1:30 PM)
Minimum temperature yesterday: 73 °F (at 3:30 AM)
Average temperature yesterday: 83 °F

High & Low Weather Summary for the Past Weeks

 TemperatureHumidityPressure
High93 °F (Jun 21, 3:00 PM)94% (Jun 17, 3:00 AM)30.18 "Hg (Jun 17, 3:00 AM)
Low64 °F (Jun 15, 4:30 AM)28% (Jun 28, 2:00 PM)29.62 "Hg (Jun 28, 4:30 PM)
Average80 °F55%29.97 "Hg
* Reported Jun 14 4:00 PM — Jun 29 4:00 PM, Luhansk, Weather by CustomWeather, © 2016

Note: Actual official high and low records may vary slightly from our data, if they occured in-between our weather recording intervals... More about our weather records

Advertising

Luhansk Weather History for the Previous 24 Hours

Scroll right to see more
 ConditionsComfort  
Time TempWeatherWind HumidityBarometerVisibility
4:00 PM
Wed, Jun 29
88 °FScattered clouds.3 mph49%29.68 "HgN/A
3:30 PM86 °FScattered clouds.8 mph52%29.68 "HgN/A
3:00 PM86 °FScattered clouds.6 mph49%29.68 "HgN/A
2:30 PM88 °FScattered clouds.1 mph43%29.68 "HgN/A
2:00 PM90 °FScattered clouds.6 mph41%29.68 "HgN/A
1:30 PM90 °FPassing clouds.6 mph41%29.71 "HgN/A
1:00 PM90 °FPassing clouds.8 mph46%29.71 "HgN/A
12:30 PM88 °FPassing clouds.8 mph49%29.71 "HgN/A
12:00 PM86 °FPassing clouds.8 mph52%29.71 "HgN/A
11:00 AM86 °FPassing clouds.3 mph49%29.71 "HgN/A
10:00 AM84 °FSunny.1 mph48%29.68 "Hg10 mi
9:30 AM82 °FPassing clouds.3 mph55%29.68 "HgN/A
9:00 AM81 °FPassing clouds.3 mph58%29.68 "HgN/A
8:30 AM79 °FSunny.8 mph65%29.68 "Hg10 mi
8:00 AM77 °FSunny.8 mph65%29.68 "Hg10 mi
7:30 AM77 °FSunny.8 mph61%29.68 "Hg10 mi
7:00 AM77 °FPassing clouds.6 mph61%29.68 "HgN/A
6:30 AM75 °FSunny.3 mph65%29.65 "Hg10 mi
6:00 AM73 °FSunny.1 mph69%29.65 "Hg10 mi
5:00 AM73 °FSunny.8 mph65%29.65 "Hg10 mi
4:00 AM73 °FClear.10 mph65%29.62 "Hg5 mi
3:30 AM75 °FClear.10 mph61%29.62 "Hg5 mi
3:00 AM73 °FClear.8 mph65%29.62 "Hg5 mi
2:30 AM75 °FClear.8 mph61%29.62 "Hg5 mi
2:00 AM77 °FClear.8 mph57%29.62 "Hg5 mi
1:30 AM77 °FClear.8 mph57%29.62 "Hg5 mi
1:00 AM77 °FClear.6 mph57%29.65 "Hg5 mi
12:30 AM77 °FClear.6 mph57%29.65 "Hg5 mi
12:00 AM79 °FClear.8 mph54%29.65 "Hg5 mi
11:30 PM
Tue, Jun 28
79 °FClear.6 mph58%29.65 "Hg5 mi
11:00 PM79 °FClear.6 mph58%29.65 "Hg5 mi
10:30 PM81 °FClear.6 mph54%29.65 "Hg5 mi
10:00 PM81 °FClear.8 mph54%29.65 "Hg5 mi
9:30 PM81 °FPassing clouds.8 mph58%29.65 "Hg5 mi
9:00 PM81 °FPassing clouds.6 mph62%29.65 "Hg5 mi
8:30 PM81 °FPassing clouds.6 mph62%29.65 "Hg5 mi
8:00 PM82 °FPassing clouds.6 mph58%29.65 "HgN/A
7:30 PM82 °FPassing clouds.8 mph58%29.65 "HgN/A
7:00 PM82 °FPassing clouds.8 mph55%29.62 "HgN/A
6:30 PM84 °FPassing clouds.8 mph55%29.62 "HgN/A
6:00 PM88 °FPassing clouds.3 mph46%29.62 "HgN/A
5:30 PM90 °FPassing clouds.6 mph36%29.62 "HgN/A
5:00 PM91 °FPassing clouds.3 mph32%29.62 "HgN/A
Weather by CustomWeather, © 2016

See weather overviewHow to use our weather pages